sat.trackr.live / text

‹ back to catalog

STARLINK-3283

NORAD 50179 · 2021-125Z

PAYLOAD ACTIVE UNKNOWN

§ Identity

Operator
Country
US
Launch date
2021-12-18
Launch site
AFWTR
Launch vehicle
Mass (kg)
RCS (m²)

Purposes: comms

External: N2YO · Heavens-Above · Gunter

§ Orbital elements

Epoch: 2026-09-19T21:27:04.891104Z

Period
94.01 min
Inclination
53.1593°
Eccentricity
0.0001250
Mean motion
15.31698908 rev/d
Perigee alt
469.9 km
Apogee alt
471.6 km
Semi-major
6,848.9 km
B*
1.4815e-5
RAAN
84.5877°
Arg perigee
96.0252°
Mean anomaly
264.0892°
Rev number
26,609

§ Raw data

STARLINK-32831 50179U 21125Z   26262.89380661  .00000095  00000+0  14815-4 0  99982 50179  53.1593  84.5877 0001250  96.0252 264.0892 15.31698908266095

JSON: /api/v1/satellites/50179 · /tle

For live sub-satellite position, see the globe view (requires WebGL).

§ Visibility from observer

Set your observer location to see the next 7 days of passes ≥ 10°. The values pass through the URL so the page stays shareable.

No JS? Fill the form by hand. The geolocation button needs JavaScript.